SWR59H LSZH-LDDU

Flight info

Callsign SWR59H
Flight time 1h 16m
Altitude 37000
Route DEGES Y170 ARGAX DCT RESIA DCT IXONA DCT SPL DCT SIPAL
Aircraft A320/M-SDE2E3FGIRWXY/L

Departure

Time 2026-04-30 06:18
Airport Zürich Airport (LSZH)

Arrival

Time 2026-04-30 07:34
Airport Dubrovnik Ruđer Bošković Airport (LDDU)
Time Latitude Longitude Altitude Speed Heading
2026-04-30 06:14 47.45200 8.55602 1410 ft 18 kts 336°
2026-04-30 06:14 47.45321 8.55547 1412 ft 19 kts 337°
2026-04-30 06:14 47.45446 8.55460 1407 ft 22 kts 335°
2026-04-30 06:14 47.45582 8.55367 1401 ft 16 kts 335°
2026-04-30 06:15 47.45673 8.55382 1408 ft 15 kts 70°
2026-04-30 06:15 47.45662 8.55536 1403 ft 15 kts 97°
2026-04-30 06:15 47.45651 8.55691 1405 ft 15 kts 96°
2026-04-30 06:15 47.45639 8.55848 1408 ft 16 kts 96°
2026-04-30 06:16 47.45627 8.56032 1410 ft 20 kts 96°
2026-04-30 06:16 47.45612 8.56253 1412 ft 22 kts 95°
2026-04-30 06:16 47.45596 8.56480 1414 ft 23 kts 98°
2026-04-30 06:16 47.45578 8.56709 1420 ft 22 kts 95°
2026-04-30 06:17 47.45564 8.56902 1420 ft 16 kts 97°
2026-04-30 06:17 47.45597 8.57017 1424 ft 12 kts 25°
2026-04-30 06:17 47.45663 8.57023 1425 ft 6 kts 333°
2026-04-30 06:17 47.45668 8.56959 1424 ft 10 kts 272°
2026-04-30 06:18 47.45696 8.56545 1416 ft 80 kts 276°
2026-04-30 06:18 47.45778 8.55391 1408 ft 144 kts 276°
2026-04-30 06:18 47.45887 8.53752 1752 ft 163 kts 278°
2026-04-30 06:18 47.46005 8.52093 2555 ft 163 kts 279°
2026-04-30 06:19 47.46125 8.50391 3208 ft 170 kts 278°
2026-04-30 06:19 47.46220 8.48629 3811 ft 173 kts 266°
2026-04-30 06:19 47.45774 8.47025 4375 ft 171 kts 230°
2026-04-30 06:19 47.45145 8.45521 4814 ft 183 kts 239°
2026-04-30 06:20 47.44324 8.43941 5104 ft 202 kts 211°
2026-04-30 06:20 47.42965 8.43323 5371 ft 216 kts 171°
2026-04-30 06:20 47.41621 8.44190 5889 ft 218 kts 132°
2026-04-30 06:20 47.40942 8.46147 6655 ft 219 kts 95°
2026-04-30 06:21 47.41133 8.48381 7379 ft 222 kts 77°
2026-04-30 06:21 47.41505 8.50619 8113 ft 231 kts 76°
2026-04-30 06:21 47.41919 8.53038 8507 ft 255 kts 76°
2026-04-30 06:21 47.42369 8.55675 9067 ft 272 kts 76°
2026-04-30 06:22 47.42832 8.58422 9895 ft 278 kts 75°
2026-04-30 06:22 47.43298 8.61221 10626 ft 287 kts 75°
2026-04-30 06:22 47.43791 8.64211 10919 ft 311 kts 75°
2026-04-30 06:22 47.44317 8.67418 11325 ft 328 kts 75°
2026-04-30 06:23 47.44852 8.70725 12056 ft 334 kts 76°
2026-04-30 06:23 47.45397 8.74084 12803 ft 339 kts 75°
2026-04-30 06:23 47.45949 8.77494 13588 ft 343 kts 75°
2026-04-30 06:23 47.46385 8.80979 14307 ft 349 kts 83°
2026-04-30 06:24 47.46353 8.84575 15043 ft 352 kts 95°
2026-04-30 06:24 47.45885 8.88153 15769 ft 356 kts 99°
2026-04-30 06:24 47.45353 8.91747 16435 ft 360 kts 99°
2026-04-30 06:24 47.44822 8.95376 17101 ft 364 kts 98°
2026-04-30 06:25 47.44295 8.99046 17789 ft 366 kts 98°
2026-04-30 06:25 47.43768 9.02747 18474 ft 369 kts 98°
2026-04-30 06:25 47.43236 9.06470 19086 ft 372 kts 98°
2026-04-30 06:25 47.42692 9.10223 19707 ft 375 kts 99°
2026-04-30 06:26 47.41800 9.13885 20275 ft 384 kts 113°
2026-04-30 06:26 47.40271 9.17165 20891 ft 395 kts 128°
2026-04-30 06:26 47.38187 9.19793 21482 ft 406 kts 143°
2026-04-30 06:26 47.35609 9.21592 22040 ft 416 kts 158°
2026-04-30 06:27 47.32880 9.23006 22607 ft 416 kts 152°
2026-04-30 06:27 47.30331 9.25033 23161 ft 415 kts 143°
2026-04-30 06:27 47.27948 9.27435 23731 ft 416 kts 139°
2026-04-30 06:27 47.25630 9.30006 24197 ft 418 kts 138°
2026-04-30 06:28 47.23305 9.32600 24655 ft 420 kts 139°
2026-04-30 06:28 47.20934 9.35139 25111 ft 423 kts 141°
2026-04-30 06:28 47.18495 9.37612 25499 ft 428 kts 142°
2026-04-30 06:28 47.16002 9.40031 25888 ft 431 kts 143°
2026-04-30 06:29 47.13475 9.42422 26310 ft 433 kts 143°
2026-04-30 06:29 47.10930 9.44806 26724 ft 436 kts 143°
2026-04-30 06:29 47.08370 9.47206 27136 ft 438 kts 143°
2026-04-30 06:29 47.05801 9.49629 27540 ft 440 kts 143°
2026-04-30 06:30 47.03219 9.52078 27908 ft 443 kts 143°
2026-04-30 06:30 47.00619 9.54553 28268 ft 446 kts 143°
2026-04-30 06:30 46.98016 9.57039 28627 ft 448 kts 143°
2026-04-30 06:30 46.95395 9.59545 28940 ft 451 kts 143°
2026-04-30 06:31 46.92758 9.62067 29283 ft 454 kts 143°
2026-04-30 06:31 46.90108 9.64595 29604 ft 456 kts 144°
2026-04-30 06:31 46.87476 9.67095 29935 ft 458 kts 144°
2026-04-30 06:31 46.84796 9.69632 30264 ft 460 kts 144°
2026-04-30 06:32 46.82105 9.72172 30523 ft 461 kts 144°
2026-04-30 06:32 46.79406 9.74720 30767 ft 464 kts 144°
2026-04-30 06:32 46.76687 9.77290 31009 ft 466 kts 144°
2026-04-30 06:32 46.73959 9.79866 31235 ft 469 kts 144°
2026-04-30 06:33 46.71208 9.82458 31418 ft 472 kts 144°
2026-04-30 06:33 46.68452 9.85050 31715 ft 472 kts 144°
2026-04-30 06:33 46.65690 9.87644 32031 ft 471 kts 144°
2026-04-30 06:33 46.62936 9.90225 32344 ft 471 kts 144°
2026-04-30 06:34 46.60182 9.92803 32657 ft 470 kts 144°
2026-04-30 06:34 46.57428 9.95378 32959 ft 470 kts 144°
2026-04-30 06:34 46.54681 9.97943 33244 ft 469 kts 144°
2026-04-30 06:34 46.51928 10.00508 33534 ft 469 kts 145°
2026-04-30 06:35 46.49316 10.03334 33823 ft 467 kts 136°
2026-04-30 06:35 46.47042 10.06671 34122 ft 464 kts 127°
2026-04-30 06:35 46.45150 10.10427 34420 ft 460 kts 120°
2026-04-30 06:35 46.44018 10.13034 34555 ft 462 kts 119°
2026-04-30 06:36 46.42300 10.16976 34768 ft 463 kts 120°
2026-04-30 06:36 46.40574 10.20914 34991 ft 464 kts 120°
2026-04-30 06:36 46.38835 10.24863 35220 ft 464 kts 120°
2026-04-30 06:36 46.36532 10.30080 35522 ft 465 kts 120°
2026-04-30 06:37 46.35352 10.32751 35659 ft 465 kts 120°
2026-04-30 06:37 46.33603 10.36696 35851 ft 466 kts 120°
2026-04-30 06:37 46.31853 10.40636 36067 ft 466 kts 120°
2026-04-30 06:37 46.30099 10.44584 36274 ft 467 kts 120°
2026-04-30 06:38 46.28341 10.48543 36455 ft 468 kts 120°
2026-04-30 06:38 46.26581 10.52509 36619 ft 469 kts 120°
2026-04-30 06:38 46.24838 10.56428 36792 ft 470 kts 120°
2026-04-30 06:38 46.23069 10.60396 37010 ft 470 kts 120°
2026-04-30 06:39 46.21294 10.64365 37184 ft 471 kts 120°
2026-04-30 06:39 46.17742 10.72311 37229 ft 471 kts 120°
2026-04-30 06:40 46.14186 10.80237 37256 ft 470 kts 120°
2026-04-30 06:40 46.10616 10.88154 37231 ft 471 kts 120°
2026-04-30 06:41 46.07042 10.96062 37229 ft 471 kts 120°
2026-04-30 06:41 46.03463 11.03978 37231 ft 472 kts 121°
2026-04-30 06:42 45.99867 11.11898 37232 ft 472 kts 121°
2026-04-30 06:42 45.96270 11.19804 37256 ft 473 kts 121°
2026-04-30 06:43 45.92686 11.27656 37257 ft 473 kts 121°
2026-04-30 06:43 45.89049 11.35611 37261 ft 473 kts 121°
2026-04-30 06:44 45.85436 11.43495 37271 ft 473 kts 121°
2026-04-30 06:44 45.81832 11.51329 37274 ft 473 kts 121°
2026-04-30 06:45 45.78198 11.59197 37279 ft 474 kts 121°
2026-04-30 06:45 45.74553 11.67068 37269 ft 474 kts 122°
2026-04-30 06:46 45.70901 11.74933 37271 ft 474 kts 122°
2026-04-30 06:46 45.67249 11.82784 37335 ft 474 kts 122°
2026-04-30 06:47 45.63582 11.90632 37330 ft 475 kts 122°
2026-04-30 06:47 45.59908 11.98477 37328 ft 475 kts 122°
2026-04-30 06:48 45.56232 12.06318 37324 ft 475 kts 122°
2026-04-30 06:48 45.52546 12.14162 37317 ft 475 kts 122°
2026-04-30 06:49 45.48851 12.21994 37296 ft 476 kts 123°
2026-04-30 06:49 45.45167 12.29773 37292 ft 477 kts 123°
2026-04-30 06:50 45.41443 12.37610 37294 ft 478 kts 123°
2026-04-30 06:50 45.37712 12.45441 37291 ft 478 kts 123°
2026-04-30 06:51 45.33978 12.53284 37282 ft 480 kts 123°
2026-04-30 06:51 45.30223 12.61148 37260 ft 482 kts 123°
2026-04-30 06:52 45.26443 12.69016 37265 ft 483 kts 123°
2026-04-30 06:52 45.22654 12.76885 37259 ft 483 kts 124°
2026-04-30 06:53 45.18854 12.84754 37280 ft 484 kts 124°
2026-04-30 06:53 45.15049 12.92636 37281 ft 484 kts 124°
2026-04-30 06:54 45.11261 13.00446 37289 ft 484 kts 124°
2026-04-30 06:54 45.07436 13.08290 37291 ft 484 kts 124°
2026-04-30 06:55 45.03611 13.16135 37301 ft 485 kts 124°
2026-04-30 06:55 44.99778 13.23974 37273 ft 485 kts 124°
2026-04-30 06:56 44.95928 13.31819 37258 ft 486 kts 124°
2026-04-30 06:56 44.92067 13.39668 37258 ft 487 kts 124°
2026-04-30 06:57 44.88195 13.47527 37271 ft 488 kts 124°
2026-04-30 06:57 44.84306 13.55381 37254 ft 488 kts 124°
2026-04-30 06:58 44.80509 13.63323 37252 ft 489 kts 123°
2026-04-30 06:58 44.76835 13.71310 37249 ft 489 kts 122°
2026-04-30 06:59 44.73152 13.79263 37244 ft 490 kts 123°
2026-04-30 06:59 44.69388 13.87256 37237 ft 491 kts 123°
2026-04-30 07:00 44.65596 13.95251 37233 ft 492 kts 124°
2026-04-30 07:00 44.61798 14.03241 37236 ft 492 kts 124°
2026-04-30 07:01 44.57995 14.11227 37252 ft 493 kts 124°
2026-04-30 07:01 44.54183 14.19230 37244 ft 493 kts 124°
2026-04-30 07:02 44.50369 14.27220 37238 ft 493 kts 124°
2026-04-30 07:02 44.46576 14.35163 37209 ft 494 kts 124°
2026-04-30 07:03 44.42749 14.43147 37220 ft 495 kts 124°
2026-04-30 07:03 44.38894 14.51132 37218 ft 496 kts 124°
2026-04-30 07:04 44.35032 14.59117 37215 ft 496 kts 124°
2026-04-30 07:04 44.31165 14.67110 37213 ft 496 kts 125°
2026-04-30 07:05 44.25343 14.79084 37218 ft 497 kts 125°
2026-04-30 07:05 44.21460 14.87056 37205 ft 497 kts 125°
2026-04-30 07:06 44.17560 14.95038 37207 ft 498 kts 125°
2026-04-30 07:06 44.13647 15.02997 37202 ft 498 kts 126°
2026-04-30 07:07 44.09756 15.10896 37198 ft 498 kts 126°
2026-04-30 07:07 44.05832 15.18854 37190 ft 498 kts 126°
2026-04-30 07:08 44.01903 15.26796 37186 ft 498 kts 126°
2026-04-30 07:08 43.97973 15.34730 37199 ft 499 kts 126°
2026-04-30 07:09 43.94036 15.42664 37169 ft 499 kts 126°
2026-04-30 07:09 43.90075 15.50597 37162 ft 500 kts 126°
2026-04-30 07:10 43.86139 15.58477 37159 ft 501 kts 126°
2026-04-30 07:10 43.82143 15.66456 37156 ft 501 kts 126°
2026-04-30 07:11 43.78176 15.74339 37156 ft 502 kts 126°
2026-04-30 07:11 43.74187 15.82256 37156 ft 502 kts 127°
2026-04-30 07:12 43.70184 15.90177 37152 ft 502 kts 127°
2026-04-30 07:12 43.66176 15.98096 37154 ft 503 kts 127°
2026-04-30 07:13 43.64169 16.02051 36911 ft 504 kts 127°
2026-04-30 07:13 43.62135 16.06053 35730 ft 514 kts 128°
2026-04-30 07:13 43.60056 16.10133 34585 ft 523 kts 129°
2026-04-30 07:13 43.58005 16.14146 33361 ft 530 kts 129°
2026-04-30 07:14 43.55865 16.18320 32229 ft 533 kts 129°
2026-04-30 07:14 43.53747 16.22462 31624 ft 525 kts 129°
2026-04-30 07:14 43.51655 16.26559 30859 ft 521 kts 129°
2026-04-30 07:14 43.49576 16.30628 30166 ft 517 kts 129°
2026-04-30 07:15 43.47567 16.34695 29517 ft 510 kts 127°
2026-04-30 07:15 43.45655 16.38770 28908 ft 503 kts 126°
2026-04-30 07:15 43.43810 16.42834 28293 ft 497 kts 125°
2026-04-30 07:15 43.42001 16.46870 27688 ft 491 kts 125°
2026-04-30 07:16 43.40211 16.50838 27084 ft 485 kts 125°
2026-04-30 07:16 43.38432 16.54728 26511 ft 479 kts 126°
2026-04-30 07:16 43.36649 16.58574 25945 ft 474 kts 126°
2026-04-30 07:16 43.34902 16.62311 25389 ft 468 kts 126°
2026-04-30 07:17 43.33145 16.66052 24859 ft 463 kts 126°
2026-04-30 07:17 43.31405 16.69749 24316 ft 459 kts 126°
2026-04-30 07:17 43.27970 16.77043 23263 ft 451 kts 126°
2026-04-30 07:18 43.26280 16.80634 22792 ft 445 kts 126°
2026-04-30 07:18 43.24615 16.84180 22313 ft 439 kts 126°
2026-04-30 07:18 43.22971 16.87681 21828 ft 434 kts 126°
2026-04-30 07:18 43.21338 16.91145 21339 ft 429 kts 126°
2026-04-30 07:19 43.19718 16.94568 20857 ft 426 kts 126°
2026-04-30 07:19 43.18125 16.97927 20352 ft 425 kts 125°
2026-04-30 07:19 43.16518 17.01309 19846 ft 423 kts 125°
2026-04-30 07:19 43.14922 17.04673 19346 ft 420 kts 125°
2026-04-30 07:20 43.13336 17.08019 18834 ft 419 kts 125°
2026-04-30 07:20 43.11740 17.11348 18292 ft 417 kts 126°
2026-04-30 07:20 43.10135 17.14639 17760 ft 414 kts 126°
2026-04-30 07:20 43.08534 17.17885 17266 ft 409 kts 126°
2026-04-30 07:21 43.06948 17.21089 16765 ft 405 kts 126°
2026-04-30 07:21 43.05376 17.24265 16271 ft 401 kts 126°
2026-04-30 07:21 43.03826 17.27402 15788 ft 397 kts 126°
2026-04-30 07:21 43.02288 17.30519 15305 ft 393 kts 126°
2026-04-30 07:22 42.99262 17.36665 14347 ft 387 kts 125°
2026-04-30 07:22 42.98269 17.38679 14028 ft 385 kts 125°
2026-04-30 07:22 42.96773 17.41702 13567 ft 382 kts 125°
2026-04-30 07:23 42.95290 17.44698 13055 ft 379 kts 125°
2026-04-30 07:23 42.93826 17.47649 12545 ft 374 kts 125°
2026-04-30 07:23 42.91901 17.51525 11860 ft 369 kts 125°
2026-04-30 07:23 42.90927 17.53470 11535 ft 366 kts 127°
2026-04-30 07:24 42.89269 17.56076 11038 ft 362 kts 135°
2026-04-30 07:24 42.87522 17.58519 10553 ft 357 kts 135°
2026-04-30 07:24 42.85820 17.60897 10387 ft 344 kts 136°
2026-04-30 07:24 42.84183 17.63179 10256 ft 330 kts 135°
2026-04-30 07:25 42.82631 17.65334 10127 ft 317 kts 136°
2026-04-30 07:25 42.81093 17.67462 9727 ft 314 kts 136°
2026-04-30 07:25 42.79582 17.69556 9376 ft 305 kts 135°
2026-04-30 07:25 42.78111 17.71621 8610 ft 304 kts 132°
2026-04-30 07:26 42.76910 17.73967 7947 ft 299 kts 118°
2026-04-30 07:26 42.75951 17.76441 7364 ft 291 kts 118°
2026-04-30 07:26 42.75018 17.78832 6783 ft 283 kts 118°
2026-04-30 07:26 42.74097 17.81161 6173 ft 276 kts 118°
2026-04-30 07:27 42.73202 17.83436 5539 ft 269 kts 116°
2026-04-30 07:27 42.72341 17.85640 5098 ft 258 kts 116°
2026-04-30 07:27 42.71518 17.87744 5003 ft 244 kts 117°
2026-04-30 07:27 42.70750 17.89708 5002 ft 227 kts 117°
2026-04-30 07:28 42.70039 17.91526 5007 ft 216 kts 115°
2026-04-30 07:28 42.69337 17.93319 5007 ft 214 kts 115°
2026-04-30 07:28 42.68637 17.95106 5010 ft 213 kts 115°
2026-04-30 07:28 42.67941 17.96881 4988 ft 212 kts 116°
2026-04-30 07:29 42.67259 17.98618 4847 ft 204 kts 116°
2026-04-30 07:29 42.66603 18.00287 4570 ft 196 kts 115°
2026-04-30 07:29 42.65973 18.01892 4302 ft 190 kts 115°
2026-04-30 07:29 42.65356 18.03462 4041 ft 185 kts 112°
2026-04-30 07:30 42.64185 18.06437 3577 ft 173 kts 112°
2026-04-30 07:30 42.63627 18.07854 3346 ft 168 kts 112°
2026-04-30 07:30 42.63075 18.09240 3134 ft 165 kts 112°
2026-04-30 07:31 42.62541 18.10603 2926 ft 163 kts 112°
2026-04-30 07:31 42.62007 18.11958 2720 ft 163 kts 113°
2026-04-30 07:31 42.61466 18.13299 2495 ft 160 kts 112°
2026-04-30 07:31 42.60953 18.14620 2252 ft 158 kts 111°
2026-04-30 07:32 42.60442 18.15905 2048 ft 150 kts 112°
2026-04-30 07:32 42.59963 18.17108 1822 ft 145 kts 111°
2026-04-30 07:32 42.59494 18.18306 1647 ft 143 kts 111°
2026-04-30 07:32 42.59023 18.19490 1434 ft 142 kts 111°
2026-04-30 07:33 42.58560 18.20678 1286 ft 141 kts 113°
2026-04-30 07:33 42.58095 18.21860 1089 ft 144 kts 112°
2026-04-30 07:33 42.57619 18.23062 887 ft 144 kts 111°
2026-04-30 07:33 42.57159 18.24247 675 ft 140 kts 112°
2026-04-30 07:34 42.56714 18.25383 534 ft 126 kts 118°
2026-04-30 07:34 42.56369 18.26240 534 ft 79 kts 118°
2026-04-30 07:34 42.56175 18.26734 534 ft 51 kts 117°
2026-04-30 07:34 42.56018 18.27127 533 ft 43 kts 118°
2026-04-30 07:35 42.55895 18.27330 532 ft 25 kts 171°
2026-04-30 07:35 42.55812 18.27339 533 ft 5 kts 176°
2026-04-30 07:35 42.55779 18.27327 534 ft 6 kts 218°
2026-04-30 07:35 42.55781 18.27255 534 ft 10 kts 292°
2026-04-30 07:36 42.55818 18.27154 534 ft 13 kts 297°
2026-04-30 07:36 42.55858 18.27050 534 ft 12 kts 297°
2026-04-30 07:36 42.55897 18.26951 534 ft 14 kts 298°
2026-04-30 07:36 42.55951 18.26816 534 ft 18 kts 298°
2026-04-30 07:37 42.56016 18.26657 534 ft 21 kts 298°
2026-04-30 07:37 42.56068 18.26523 534 ft 8 kts 295°
2026-04-30 07:37 42.56041 18.26477 534 ft 7 kts 206°
2026-04-30 07:37 42.56021 18.26463 534 ft 0 kts 208°